GW5561 Weather Reports


time (UTC)temp
C
wind
direction
speed
KPH
gust
KPH
rain 1hr
cm
rain 24hr
cm
rain mn
cm
humidity
%
barometer
mb
20260906155659 36 62 1.6 4.8 0.00 0.00 0.00 48 1012.3
20260906155150 36 80 1.6 1.6 0.00 0.00 0.00 48 1012.3
20260906154645 36 102 0.0 1.6 0.00 0.00 0.00 48 1012.4
20260906154144 36 88 1.6 4.8 0.00 0.00 0.00 48 1012.2
20260906153643 35 101 0.0 4.8 0.00 0.00 0.00 49 1012.2
20260906153138 35 323 3.2 4.8 0.00 0.00 0.00 49 1012.1
20260906152633 35 127 1.6 8.0 0.00 0.00 0.00 51 1012.1
20260906152126 35 33 3.2 4.8 0.00 0.00 0.00 50 1012.0
20260906151621 34 95 0.0 3.2 0.00 0.00 0.00 51 1012.1
20260906151118 34 76 1.6 4.8 0.00 0.00 0.00 54 1012.1
20260906150613 33 140 6.4 8.0 0.00 0.00 0.00 53 1012.0
20260906150108 33 124 3.2 8.0 0.00 0.00 0.00 55 1011.8
20260906145606 33 108 3.2 3.2 0.00 0.00 0.00 55 1011.9
20260906145101 33 142 3.2 3.2 0.00 0.00 0.00 56 1011.8
20260906144555 33 71 1.6 3.2 0.00 0.00 0.00 56 1011.9
20260906144051 33 65 1.6 1.6 0.00 0.00 0.00 56 1011.8
20260906143546 32 100 0.0 1.6 0.00 0.00 0.00 62 1011.8
20260906143043 32 100 0.0 1.6 0.00 0.00 0.00 65 1011.8
20260906142542 32 86 0.0 1.6 0.00 0.00 0.00 63 1011.9
20260906142038 31 87 0.0 0.0 0.00 0.00 0.00 70 1011.4
20260906141536 30 87 0.0 0.0 0.00 0.00 0.00 73 1011.6
20260906141032 30 76 0.0 0.0 0.00 0.00 0.00 76 1011.8
20260906140531 28 76 0.0 0.0 0.00 0.00 0.00 80 1011.3
20260906140031 27 76 0.0 0.0 0.00 0.00 0.00 83 1011.3
20260906135528 27 77 0.0 0.0 0.00 0.00 0.00 84 1011.2
20260906135024 26 77 0.0 0.0 0.00 0.00 0.00 84 1011.0
20260906134519 26 77 0.0 0.0 0.00 0.00 0.00 84 1011.0
20260906134014 26 77 0.0 0.0 0.00 0.00 0.00 85 1011.0
20260906133510 25 76 0.0 0.0 0.00 0.00 0.00 86 1011.0
20260906133005 24 76 0.0 0.0 0.00 0.00 0.00 90 1010.8
20260906132500 23 77 0.0 0.0 0.00 0.00 0.00 91 1010.9
20260906131955 23 77 0.0 0.0 0.00 0.00 0.00 94 1010.7
20260906131451 22 76 0.0 0.0 0.00 0.00 0.00 97 1010.7
20260906130946 22 76 0.0 0.0 0.00 0.00 0.00 98 1010.7
20260906130445 21 77 0.0 0.0 0.00 0.00 0.00 98 1010.6
20260906125940 21 77 0.0 0.0 0.00 0.00 0.00 98 1010.6
20260906125438 21 77 0.0 0.0 0.00 0.00 0.00 99 1010.6
20260906124937 21 76 0.0 0.0 0.00 0.00 0.00 99 1010.6
20260906124433 21 77 0.0 0.0 0.00 0.00 0.00 99 1010.7
20260906123933 20 77 0.0 0.0 0.00 0.00 0.00 99 1010.6
20260906123433 20 76 0.0 0.0 0.00 0.00 0.00 99 1010.6
20260906122933 20 76 0.0 0.0 0.00 0.00 0.00 99 1010.3
20260906122427 20 76 0.0 0.0 0.00 0.00 0.00 99 1010.2
20260906121925 20 76 0.0 0.0 0.00 0.00 0.00 99 1010.2
20260906121420 20 76 0.0 0.0 0.00 0.00 0.00 99 1010.0
20260906120917 20 76 0.0 0.0 0.00 0.00 0.00 99 1010.0
20260906120412 20 75 0.0 0.0 0.00 0.00 0.00 99 1010.4
20260906115908 20 75 0.0 0.0 0.00 0.00 0.00 99 1010.0
20260906115403 20 75 0.0 0.0 0.00 0.00 0.00 99 1010.0
20260906114902 20 75 0.0 0.0 0.00 0.00 0.00 99 1009.9
20260906114357 20 75 0.0 0.0 0.00 0.00 0.00 99 1010.1
20260906113853 20 75 0.0 0.0 0.00 0.00 0.00 99 1010.1
20260906113352 20 75 0.0 0.0 0.00 0.00 0.00 99 1010.2
20260906112848 20 74 0.0 1.6 0.00 0.00 0.00 99 1010.1
20260906112344 20 88 0.0 0.0 0.00 0.00 0.00 99 1010.2
20260906111843 20 96 0.0 0.0 0.00 0.00 0.00 99 1009.9
20260906111343 20 64 3.2 3.2 0.00 0.00 0.00 99 1010.0
20260906110838 20 91 0.0 0.0 0.00 0.00 0.00 99 1009.8
20260906110334 20 56 0.0 0.0 0.00 0.00 0.00 99 1009.8
20260906105833 20 67 0.0 0.0 0.00 0.00 0.00 99 1010.1
20260906105329 20 73 0.0 0.0 0.00 0.00 0.00 99 1009.7
20260906104825 20 81 0.0 0.0 0.00 0.00 0.00 99 1009.9
20260906104323 20 82 0.0 0.0 0.00 0.00 0.00 99 1009.6
20260906103822 20 81 0.0 0.0 0.00 0.00 0.00 99 1009.7
20260906103320 20 81 0.0 0.0 0.00 0.00 0.00 99 1009.7
20260906102817 20 81 0.0 0.0 0.00 0.00 0.00 99 1009.6
20260906102315 20 81 0.0 0.0 0.00 0.00 0.00 99 1009.4
20260906101811 20 81 0.0 0.0 0.00 0.00 0.00 99 1009.5
20260906101306 20 81 0.0 0.0 0.00 0.00 0.00 99 1009.3
20260906100801 20 81 0.0 0.0 0.00 0.00 0.00 99 1009.4
20260906100301 20 81 0.0 0.0 0.00 0.00 0.00 99 1009.4
20260906095756 20 81 0.0 0.0 0.00 0.00 0.00 99 1009.5
20260906095251 20 81 0.0 0.0 0.00 0.00 0.00 99 1009.4
20260906094750 20 80 0.0 0.0 0.00 0.00 0.00 98 1009.3
20260906094245 20 80 0.0 0.0 0.00 0.00 0.00 98 1009.4
20260906093742 20 80 0.0 0.0 0.00 0.00 0.00 98 1009.2
20260906093237 21 80 0.0 0.0 0.00 0.00 0.00 98 1009.4
20260906092732 21 81 0.0 0.0 0.00 0.00 0.00 98 1009.4
20260906092232 21 81 0.0 0.0 0.00 0.00 0.00 98 1009.0
20260906091728 21 81 0.0 0.0 0.00 0.00 0.00 98 1009.2
20260906091224 21 80 0.0 0.0 0.00 0.00 0.00 98 1009.2
20260906090720 21 81 0.0 0.0 0.00 0.00 0.00 98 1009.3
20260906090219 21 81 0.0 0.0 0.00 0.00 0.00 98 1009.0
20260906085718 21 81 0.0 0.0 0.00 0.00 0.00 98 1009.1
20260906085218 21 81 0.0 0.0 0.00 0.00 0.00 98 1009.2
20260906084713 21 81 0.0 0.0 0.00 0.00 0.00 98 1009.1
20260906084212 21 82 0.0 0.0 0.00 0.00 0.00 98 1009.1
20260906083708 21 82 0.0 0.0 0.00 0.00 0.00 97 1009.0
20260906083203 21 82 0.0 0.0 0.00 0.00 0.00 97 1009.3
20260906082658 21 81 0.0 0.0 0.00 0.00 0.00 97 1009.3
20260906082153 21 82 0.0 0.0 0.00 0.00 0.00 97 1009.2
20260906081649 21 80 0.0 0.0 0.00 0.00 0.00 97 1009.1
20260906081144 21 82 0.0 0.0 0.00 0.00 0.00 97 1009.2
20260906080640 21 82 0.0 0.0 0.00 0.00 0.00 97 1009.2
20260906080136 21 82 0.0 0.0 0.00 0.00 0.00 97 1009.2
20260906075636 21 80 0.0 0.0 0.00 0.00 0.00 97 1009.2
20260906075130 21 83 0.0 0.0 0.00 0.00 0.00 96 1009.2
20260906074626 21 84 0.0 0.0 0.00 0.00 0.00 96 1009.2
20260906074125 21 82 0.0 0.0 0.00 0.00 0.00 96 1009.2
20260906073620 21 82 0.0 0.0 0.00 0.00 0.00 96 1009.2
20260906073115 21 84 0.0 0.0 0.00 0.00 0.00 96 1009.4
20260906072610 21 84 0.0 0.0 0.00 0.00 0.00 96 1009.4
20260906072106 21 84 0.0 0.0 0.00 0.00 0.00 96 1009.5
20260906071603 21 84 0.0 0.0 0.00 0.00 0.00 96 1009.5
20260906071103 21 83 0.0 0.0 0.00 0.00 0.00 96 1009.7
20260906070559 21 83 0.0 0.0 0.00 0.00 0.00 96 1009.5
20260906070054 21 84 0.0 0.0 0.00 0.00 0.00 96 1009.5
20260906065554 22 82 0.0 0.0 0.00 0.00 0.00 95 1009.5
20260906065049 22 82 0.0 0.0 0.00 0.00 0.00 95 1009.5
20260906064545 22 82 0.0 0.0 0.00 0.00 0.00 95 1009.4
20260906064040 22 82 0.0 0.0 0.00 0.00 0.00 95 1009.7
20260906063535 22 83 0.0 0.0 0.00 0.00 0.00 95 1009.5
20260906063032 22 82 0.0 0.0 0.00 0.00 0.00 95 1009.9
20260906062526 22 82 0.0 0.0 0.00 0.00 0.00 94 1009.6
20260906062021 22 83 0.0 0.0 0.00 0.00 0.00 94 1009.4
20260906061517 22 80 0.0 0.0 0.00 0.00 0.00 94 1009.8
20260906061016 22 83 0.0 0.0 0.00 0.00 0.00 94 1009.9
20260906060513 22 82 0.0 0.0 0.00 0.00 0.00 94 1009.6
20260906060010 22 68 0.0 0.0 0.00 0.00 0.00 94 1009.9
20260906055505 22 80 0.0 0.0 0.00 0.00 0.00 94 1010.0
20260906055001 22 80 0.0 0.0 0.00 0.00 0.00 94 1009.8
20260906054500 22 80 0.0 0.0 0.00 0.00 0.00 93 1009.8
20260906053956 22 82 0.0 0.0 0.00 0.00 0.00 93 1009.7
20260906053452 22 82 0.0 0.0 0.00 0.00 0.00 94 1009.9
20260906052948 22 82 0.0 0.0 0.00 0.00 0.00 93 1009.8
20260906052444 22 84 0.0 0.0 0.00 0.00 0.00 93 1009.7
20260906051940 22 82 0.0 0.0 0.00 0.00 0.00 93 1009.7
20260906051436 22 84 0.0 0.0 0.00 0.00 0.00 93 1009.7
20260906050931 22 84 0.0 0.0 0.00 0.00 0.00 93 1009.5
20260906050431 22 84 0.0 0.0 0.00 0.00 0.00 93 1009.8
20260906045930 22 84 0.0 0.0 0.00 0.00 0.00 93 1009.6
20260906045429 22 84 0.0 0.0 0.00 0.00 0.00 93 1009.8
20260906044926 22 78 0.0 0.0 0.00 0.00 0.00 93 1009.6
20260906044426 22 78 0.0 0.0 0.00 0.00 0.00 92 1009.5
20260906043921 22 78 0.0 0.0 0.00 0.00 0.00 92 1009.7
20260906043417 22 78 0.0 0.0 0.00 0.00 0.00 92 1009.8
20260906042913 23 78 0.0 0.0 0.00 0.00 0.00 92 1009.7
20260906042412 23 78 0.0 0.0 0.00 0.00 0.00 92 1009.9
20260906041907 23 78 0.0 0.0 0.00 0.00 0.00 91 1009.9
20260906041403 23 78 0.0 0.0 0.00 0.00 0.00 91 1009.8
20260906040902 23 78 0.0 0.0 0.00 0.00 0.00 90 1009.7
20260906040357 23 78 0.0 0.0 0.00 0.00 0.00 90 1009.6
20260906035854 23 77 0.0 0.0 0.00 0.00 0.00 90 1009.6
20260906035349 23 77 0.0 0.0 0.00 0.00 0.00 90 1009.6
20260906034844 23 83 0.0 0.0 0.00 0.00 0.00 90 1009.8
20260906034344 23 82 0.0 0.0 0.00 0.00 0.00 89 1009.8
20260906033840 23 82 0.0 0.0 0.00 0.00 0.00 89 1009.7
20260906033339 23 82 0.0 0.0 0.00 0.00 0.00 89 1009.6
20260906032835 23 78 0.0 0.0 0.00 0.00 0.00 88 1009.6
20260906032331 23 82 0.0 0.0 0.00 0.00 0.00 88 1009.8
20260906031826 23 87 0.0 0.0 0.00 0.00 0.00 88 1009.6
20260906031321 23 87 0.0 0.0 0.00 0.00 0.00 88 1009.6
20260906030821 23 59 1.6 1.6 0.00 0.00 0.00 87 1009.9
20260906030316 23 86 0.0 0.0 0.00 0.00 0.00 88 1009.7
20260906025811 23 86 0.0 0.0 0.00 0.00 0.00 88 1009.4
20260906025306 23 86 0.0 0.0 0.00 0.00 0.00 88 1009.6
20260906024804 23 86 0.0 0.0 0.00 0.00 0.00 88 1009.4
20260906024303 23 86 0.0 0.0 0.00 0.00 0.00 88 1009.2
20260906023759 23 86 0.0 0.0 0.00 0.00 0.00 88 1009.6
20260906023254 23 86 0.0 0.0 0.00 0.00 0.00 88 1009.4
20260906022749 23 86 0.0 0.0 0.00 0.00 0.00 88 1009.3
20260906022244 23 86 0.0 0.0 0.00 0.00 0.00 88 1009.3
20260906021741 23 86 0.0 0.0 0.00 0.00 0.00 87 1009.1
20260906021240 23 87 0.0 0.0 0.00 0.00 0.00 87 1009.0
20260906020735 23 87 0.0 0.0 0.00 0.00 0.00 87 1008.8
20260906020234 23 87 0.0 0.0 0.00 0.00 0.00 86 1008.9
20260906015729 24 86 0.0 0.0 0.00 0.00 0.00 85 1008.8
20260906015227 24 86 0.0 0.0 0.00 0.00 0.00 85 1008.8
20260906014722 24 87 0.0 0.0 0.00 0.00 0.00 84 1008.5
20260906014218 24 86 0.0 0.0 0.00 0.00 0.00 84 1008.7
20260906013714 24 86 0.0 0.0 0.00 0.00 0.00 84 1008.7
20260906013214 24 87 0.0 0.0 0.00 0.00 0.00 84 1008.9
20260906012710 25 86 0.0 0.0 0.00 0.00 0.00 83 1008.5
20260906012210 25 86 0.0 0.0 0.00 0.00 0.00 83 1008.7
20260906011705 25 86 0.0 0.0 0.00 0.00 0.00 82 1008.7
20260906011159 25 86 0.0 0.0 0.00 0.00 0.00 82 1008.2
20260906010655 25 86 0.0 0.0 0.00 0.00 0.00 81 1008.4
20260906010151 25 86 0.0 0.0 0.00 0.00 0.00 81 1008.3
20260906005650 25 87 0.0 0.0 0.00 0.00 0.00 80 1008.4
20260906005150 26 86 0.0 0.0 0.00 0.00 0.00 79 1008.1
20260906004650 26 86 0.0 0.0 0.00 0.00 0.00 78 1008.4
20260906004145 26 87 0.0 0.0 0.00 0.00 0.00 78 1008.2
20260906003640 26 87 0.0 0.0 0.00 0.00 0.00 77 1008.5
20260906003136 27 86 0.0 0.0 0.00 0.00 0.00 76 1008.3
20260906002636 27 87 0.0 0.0 0.00 0.00 0.00 74 1008.7
20260906002130 27 87 0.0 0.0 0.00 0.00 0.00 73 1008.7
20260906001626 28 87 0.0 0.0 0.00 0.00 0.00 71 1008.8
20260906001125 28 81 0.0 0.0 0.00 0.00 0.00 69 1008.4
20260906000621 28 80 0.0 0.0 0.00 0.00 0.00 67 1008.8
20260906000117 28 67 0.0 0.0 0.00 0.00 0.00 66 1009.0
20260905235615 29 65 1.6 1.6 0.00 0.00 0.00 64 1008.8
20260905235111 29 66 0.0 1.6 0.00 0.00 0.00 63 1008.9
20260905234606 30 61 1.6 1.6 0.00 0.00 0.00 61 1008.9
20260905234101 30 67 0.0 0.0 0.00 0.00 0.00 61 1009.0
20260905233601 30 67 0.0 1.6 0.00 0.00 0.00 61 1008.8
20260905233056 30 69 0.0 1.6 0.00 0.00 0.00 61 1009.1
20260905232551 30 88 0.0 1.6 0.00 0.00 0.00 62 1009.0
20260905232047 30 59 1.6 1.6 0.00 0.00 0.00 60 1008.9
20260905231542 30 59 1.6 4.8 0.00 0.00 0.00 59 1008.9
20260905231038 30 88 1.6 3.2 0.00 0.00 0.00 58 1008.7
20260905230537 30 32 3.2 3.2 0.00 0.00 0.00 58 1008.8
20260905230036 31 89 0.0 3.2 0.00 0.00 0.00 57 1008.9
20260905225531 31 20 1.6 4.8 0.00 0.00 0.00 54 1008.7
20260905225027 31 110 0.0 1.6 0.00 0.00 0.00 55 1009.0
20260905224526 30 228 1.6 11.3 0.00 0.00 0.00 56 1008.9
20260905224026 30 92 3.2 4.8 0.00 0.00 0.00 58 1008.9
20260905223524 30 59 1.6 3.2 0.00 0.00 0.00 60 1008.9
20260905223020 29 61 0.0 3.2 0.00 0.00 0.00 62 1008.9
20260905222519 29 84 1.6 8.0 0.00 0.00 0.00 61 1009.0
20260905222015 30 63 1.6 9.7 0.00 0.00 0.00 58 1009.1
20260905221511 30 348 3.2 11.3 0.00 0.00 0.00 57 1009.2
20260905221007 31 90 3.2 11.3 0.00 0.00 0.00 56 1009.2
20260905220503 32 141 3.2 4.8 0.00 0.00 0.00 51 1009.4
20260905220002 36 177 4.8 11.3 0.00 0.00 0.00 45 1009.8
20260905215458 38 70 1.6 3.2 0.00 0.00 0.00 36 1009.6
20260905214954 38 8 3.2 4.8 0.00 0.00 0.00 35 1009.1
20260905214449 38 97 1.6 1.6 0.00 0.00 0.00 34 1009.2
20260905213949 37 86 0.0 1.6 0.00 0.00 0.00 34 1009.0
20260905213445 37 81 0.0 1.6 0.00 0.00 0.00 35 1009.0
20260905212940 37 60 4.8 8.0 0.00 0.00 0.00 34 1009.2
20260905212435 38 96 0.0 1.6 0.00 0.00 0.00 34 1009.2
20260905211934 38 140 1.6 3.2 0.00 0.00 0.00 33 1009.5
20260905211430 38 107 1.6 3.2 0.00 0.00 0.00 34 1009.6
20260905210926 38 105 1.6 3.2 0.00 0.00 0.00 34 1009.4
20260905210426 38 135 1.6 1.6 0.00 0.00 0.00 33 1009.3
20260905205926 38 91 0.0 3.2 0.00 0.00 0.00 33 1009.7
20260905205420 38 55 0.0 0.0 0.00 0.00 0.00 33 1009.4
20260905204920 38 88 0.0 0.0 0.00 0.00 0.00 34 1009.5
20260905204416 38 308 4.8 4.8 0.00 0.00 0.00 34 1009.7
20260905203915 38 61 1.6 3.2 0.00 0.00 0.00 34 1009.9
20260905203410 37 135 1.6 3.2 0.00 0.00 0.00 34 1009.9
20260905202906 37 152 1.6 3.2 0.00 0.00 0.00 34 1010.3
20260905202401 37 100 0.0 0.0 0.00 0.00 0.00 34 1010.1
20260905201856 37 66 0.0 3.2 0.00 0.00 0.00 33 1010.1
20260905201352 37 143 3.2 4.8 0.00 0.00 0.00 34 1010.1
20260905200851 38 152 1.6 3.2 0.00 0.00 0.00 34 1010.2
20260905200348 38 108 4.8 8.0 0.00 0.00 0.00 33 1010.1
20260905195845 38 87 1.6 3.2 0.00 0.00 0.00 33 1010.4
20260905195341 38 152 3.2 3.2 0.00 0.00 0.00 33 1010.5
20260905194837 38 40 1.6 1.6 0.00 0.00 0.00 32 1010.5
20260905194336 39 76 4.8 4.8 0.00 0.00 0.00 32 1010.6
20260905193835 39 29 1.6 3.2 0.00 0.00 0.00 29 1010.6
20260905193330 38 133 1.6 3.2 0.00 0.00 0.00 31 1010.8
20260905192826 38 151 3.2 3.2 0.00 0.00 0.00 35 1010.8
20260905192322 37 83 0.0 1.6 0.00 0.00 0.00 37 1010.7
20260905191821 38 140 1.6 1.6 0.00 0.00 0.00 37 1010.7
20260905191320 39 106 1.6 1.6 0.00 0.00 0.00 34 1011.1
20260905190819 40 79 0.0 3.2 0.00 0.00 0.00 32 1010.8
20260905190313 39 76 0.0 1.6 0.00 0.00 0.00 33 1011.0
20260905185812 37 125 1.6 4.8 0.00 0.00 0.00 35 1011.0
20260905185307 38 78 3.2 12.9 0.00 0.00 0.00 35 1011.2
20260905184806 39 100 3.2 4.8 0.00 0.00 0.00 34 1011.3
20260905184305 40 90 1.6 9.7 0.00 0.00 0.00 34 1011.3
20260905183759 40 84 1.6 4.8 0.00 0.00 0.00 34 1011.3
20260905183254 40 82 0.0 8.0 0.00 0.00 0.00 34 1011.3
20260905182753 40 94 0.0 1.6 0.00 0.00 0.00 33 1011.6
20260905182247 40 71 3.2 3.2 0.00 0.00 0.00 34 1011.4
20260905181743 38 94 0.0 1.6 0.00 0.00 0.00 35 1011.8
20260905181242 39 24 1.6 3.2 0.00 0.00 0.00 34 1011.8
20260905180737 38 123 1.6 1.6 0.00 0.00 0.00 35 1011.7
20260905180232 38 7 3.2 4.8 0.00 0.00 0.00 35 1012.1
20260905175726 38 255 3.2 3.2 0.00 0.00 0.00 34 1011.7
20260905175221 38 95 1.6 4.8 0.00 0.00 0.00 35 1012.0
20260905174716 37 120 3.2 8.0 0.00 0.00 0.00 37 1012.0
20260905174212 37 42 4.8 4.8 0.00 0.00 0.00 37 1012.0
20260905173708 38 44 0.0 4.8 0.00 0.00 0.00 36 1012.0
20260905173203 37 66 3.2 8.0 0.00 0.00 0.00 39 1012.1
20260905172703 37 60 4.8 8.0 0.00 0.00 0.00 38 1012.2
20260905172157 38 74 0.0 3.2 0.00 0.00 0.00 37 1012.2
20260905171653 38 39 1.6 8.0 0.00 0.00 0.00 38 1012.4
20260905171149 38 126 3.2 4.8 0.00 0.00 0.00 38 1012.4
20260905170646 38 59 0.0 1.6 0.00 0.00 0.00 38 1012.3
20260905170141 37 101 3.2 3.2 0.00 0.00 0.00 38 1012.4
20260905165640 37 109 0.0 4.8 0.00 0.00 0.00 40 1012.4
20260905165136 37 122 1.6 1.6 0.00 0.00 0.00 39 1012.3
20260905164631 38 7 4.8 8.0 0.00 0.00 0.00 39 1012.5
20260905164130 38 42 1.6 1.6 0.00 0.00 0.00 39 1012.5
20260905163626 38 22 1.6 3.2 0.00 0.00 0.00 40 1012.4
20260905163122 37 117 3.2 4.8 0.00 0.00 0.00 44 1012.5
20260905162618 37 40 3.2 3.2 0.00 0.00 0.00 44 1012.5
20260905162117 38 32 3.2 3.2 0.00 0.00 0.00 40 1012.5
20260905161617 37 60 1.6 3.2 0.00 0.00 0.00 44 1012.5
20260905161115 37 108 1.6 1.6 0.00 0.00 0.00 44 1012.6
20260905160615 36 172 1.6 1.6 0.00 0.00 0.00 45 1012.8
20260905160115 37 69 0.0 1.6 0.00 0.00 0.00 44 1012.6